Miscellaneous Local Product
Issued by NWS Hastings, NE

Home | Current Version | Previous Version | Graphics & Text | Print | Product List | Glossary On
Versions: 1 2 3 4 5 6 7 8 9 10 11 12 13 14 15 16 17 18 19 20 21 22 23 24 25 26 27 28 29 30 31 32 33 34 35 36 37 38 39 40 41 42 43 44 45 46 47 48 49 50
000
AXUS43 KGID 280202
MISGRI

GID CWA HOURLY WEATHER ROUNDUP
NATIONAL WEATHER SERVICE HASTINGS NE
900 PM CDT SUN JUL 27 2014

NOTE: "FAIR" INDICATES FEW OR NO CLOUDS BELOW 12,000 FEET WITH NO
SIGNIFICANT WEATHER AND/OR OBSTRUCTIONS TO VISIBILITY.

...SOUTH CENTRAL NEBRASKA...

CITY           SKY/WX    TMP DP  RH WIND       PRES   REMARKS
GRAND ISLAND   CLEAR     71  61  70 NE7       30.19R
HASTINGS       CLEAR     74  58  57 N3        30.18R
KEARNEY        CLEAR     73  55  53 N5        30.20R
ORD            CLEAR     71  56  58 N6        30.19R
YORK           CLEAR     70  63  78 N7        30.17R
AURORA         CLEAR     71  63  76 NE3       30.18R
LEXINGTON      CLEAR     72  56  55 N6        30.22R
HOLDREGE       CLEAR     72  58  62 CALM      30.21R
HEBRON         CLEAR     74  59  60 NE5       30.15S

...NEBRASKA PANHANDLE...

CITY           SKY/WX    TMP DP  RH WIND       PRES   REMARKS
CHADRON        CLEAR     76  50  40 E8        30.26R
ALLIANCE       CLEAR     77  47  34 E9        30.27S
SCOTTSBLUFF    CLEAR     78  57  48 E7        30.26S
SIDNEY         MOCLDY    78  44  29 S8        30.31R

...WESTERN AND NORTH CENTRAL NEBRASKA...

CITY           SKY/WX    TMP DP  RH WIND       PRES   REMARKS
VALENTINE      CLEAR     75  52  44 NE10      30.25R
AINSWORTH      CLEAR     69  53  57 N7        30.25R
ONEILL         CLEAR     69  53  56 N7        30.22R
BROKEN BOW     CLEAR     68  58  70 NW5       30.22R
IMPERIAL       CLOUDY    78  55  44 E7        30.25S
NORTH PLATTE   CLEAR     73  50  44 NE7       30.23R
MCCOOK         PTCLDY    77  54  44 E7        30.22R

...EASTERN NEBRASKA...

CITY           SKY/WX    TMP DP  RH WIND       PRES   REMARKS
NORFOLK        CLEAR     71  57  61 N13       30.17R
SO SIOUX CITY  CLEAR     70  56  61 N14G22    30.14R
ALBION         CLEAR     70  58  65 N6        30.19R
OMAHA EPPLEY   PTCLDY    72  56  57 NW8       30.12R
OFFUTT AFB     PTCLDY    73  57  56 N6        30.12R
MILLARD        CLEAR     74  57  55 N3        30.13R
LINCOLN        CLEAR     72  56  57 N7        30.15R
NEBRASKA CITY  CLEAR     71  56  59 N6        30.13R
BEATRICE       CLEAR     70  60  71 N3        30.14R
FALLS CITY     NOT AVBL

...NORTHERN KANSAS...

CITY           SKY/WX    TMP DP  RH WIND       PRES   REMARKS
GOODLAND       CLEAR     74  53  48 SE5       30.28R
HILL CITY      CLEAR     78  53  41 NE7       30.19R
NORTON         CLEAR     75  45  33 NE5       30.20R
PHILLIPSBURG   CLEAR     82  46  28 N7        30.17R
SMITH CENTER   CLEAR     79  54  41 NE8       30.18R
HAYS           CLEAR     77  54  44 NE6       30.19R
RUSSELL        CLEAR     77  50  38 NE6       30.16R
CONCORDIA      CLEAR     76  56  49 N7        30.14S
SALINA         CLEAR     83  52  34 NE10      30.13R
TOPEKA         CLEAR     78  57  48 N9        30.09R



USA.gov is the U.S. government's official web portal to all federal, state and local government web resources and services.